Voltar ao catálogo

STARLINK-37887

AtivoComunicaçõesVLEO
NORAD 69832·PAYLOAD·🇺🇸 United States

Lançado Jul 5, 2026 de Cape Canaveral Space Force Station

Loading…

Próximas Passagens (próximas 24 horas)

TLE

AtualizadoSource: CelesTrak SupGP

Época: Sep 14, 2026, 22:35 UTC

1 69832C 26154P   26257.94145833 -.00007616  00000+0 -22513-3 0  2579
2 69832  53.1591 357.6866 0001237  84.4028 327.5050 15.34380509    15

Acompanhe STARLINK-37887 em tempo real com AllMySat

Download on the App Store